Wetbulb
54.13 54.89 55.72 55.65 55.96 57.44 58.25 59.08 60.36 60.86 59.42 60.30 62.85 62.69 62.25 61.31 61.17 59.93 55.65 59.45 61.63 64.79 62.76 60.69 60.87 61.37 59.32 56.58 56.14 56.99 53.60 50.76 50.58 51.51 52.81 55.58 55.14 56.65 58.58 57.78 58.84 59.76 58.28 60.97 66.09
54.27 54.18 54.50 55.45 55.39 56.37 57.48 58.56 59.86 60.71 59.96 59.82 62.08 61.84 61.51 60.88 57.94 56.31 61.43 62.50 64.23 64.08 58.15 57.15 57.31 58.85 56.80 54.77 55.71 54.64 53.30 52.44 54.38 55.36 54.51 55.06 56.52 56.18 57.08 56.97 57.74 59.46 61.33 63.78 66.28
53.65 54.09 53.85 54.15 54.72 55.58 56.49 57.99 59.22 59.90 60.90 60.97 61.72 61.61 60.92 60.38 51.97 54.54 60.88 62.27 63.88 62.85 60.40 59.41 58.50 57.17 54.22 54.42 53.81 52.37 52.05 51.92 51.65 53.91 56.60 55.14 55.64 57.90 56.88 55.30 58.09 57.67 59.78 62.52 64.68
53.42 53.72 52.98 53.50 54.50 54.89 55.50 57.42 58.88 59.36 60.48 60.87 61.23 61.37 60.65 58.10 44.26 57.64 63.17 63.50 63.96 60.98 58.36 56.64 56.10 53.43 52.32 50.93 53.27 50.54 51.51 51.74 51.73 52.69 54.53 54.39 56.76 55.83 57.58 57.16 58.22 61.01 61.75 62.31 62.89
53.47 53.43 53.20 52.61 53.50 54.57 54.36 56.07 58.08 58.84 59.78 60.54 60.52 60.91 58.02 51.08 50.64 58.65 62.01 62.80 60.28 59.04 55.36 54.94 53.33 52.59 50.14 51.10 52.24 50.57 51.01 51.90 51.83 52.27 54.20 54.43 54.02 55.79 56.27 56.15 58.09 60.01 61.27 61.65 61.91
53.22 53.37 53.29 52.03 52.75 53.93 54.04 54.83 57.41 57.83 59.07 59.90 60.23 59.95 54.61 46.08 56.05 57.56 60.47 59.77 58.99 57.65 55.78 56.11 54.76 54.37 51.94 50.97 50.48 51.05 51.10 51.26 52.14 52.08 52.29 52.83 51.95 53.10 56.08 57.43 58.27 59.77 60.63 61.61 61.75
52.93 53.69 52.81 52.12 52.34 53.34 53.74 54.39 56.53 57.48 57.91 59.49 60.06 56.66 52.37 49.22 56.68 56.98 59.19 58.49 60.09 58.02 55.39 57.85 58.02 55.03 52.83 49.98 52.04 51.28 48.83 50.77 51.45 51.69 51.14 53.17 49.83 51.33 54.41 56.22 57.03 58.83 60.74 61.16 62.01
52.85 53.20 52.69 52.19 51.89 52.48 52.90 54.26 55.85 56.92 57.73 58.99 59.30 54.49 46.80 55.46 57.00 56.29 58.39 58.11 60.69 60.58 58.19 58.71 59.02 55.73 53.33 53.10 50.49 48.35 48.73 44.95 48.92 50.61 50.91 51.56 49.06 53.48 53.77 54.61 56.03 57.64 59.65 60.29 61.21
53.50 53.45 53.23 51.64 51.88 51.92 52.94 53.66 55.37 56.82 57.56 58.78 54.71 52.18 43.85 54.57 51.26 55.20 57.29 56.12 58.59 58.79 58.87 58.23 56.58 53.63 52.59 48.12 44.36 45.93 43.17 43.58 45.55 49.56 49.22 49.46 48.98 49.30 51.54 52.54 54.21 55.92 57.68 58.52 59.56
53.58 53.50 53.12 51.79 51.80 51.62 52.59 52.81 54.27 56.18 56.12 55.52 52.93 45.13 47.64 45.73 49.87 53.97 55.73 57.95 55.62 56.25 54.61 53.40 52.26 48.78 48.62 45.85 37.88 41.12 42.64 43.11 44.06 45.80 47.44 46.54 47.55 50.11 50.22 50.50 52.80 53.73 54.19 54.74 55.74
53.60 53.43 52.65 51.80 51.13 50.43 51.29 51.04 48.28 46.40 50.49 45.90 45.88 45.47 46.43 49.87 52.88 52.22 56.13 55.76 55.47 51.82 44.55 50.15 45.34 42.79 45.40 46.74 45.35 43.88 42.55 42.38 43.79 45.35 45.12 45.37 46.63 49.16 50.91 50.25 51.48 52.93 53.32 53.80 54.31
53.61 53.29 52.52 51.33 50.73 51.04 51.07 44.39 47.05 48.13 43.22 48.22 47.92 47.96 49.06 50.40 45.90 49.12 55.63 49.12 48.19 42.65 47.62 44.95 40.82 44.87 47.14 46.98 44.67 43.59 41.64 40.73 43.63 44.63 44.84 44.12 43.80 47.28 48.51 48.47 49.98 50.85 51.93 52.69 53.02
53.33 53.36 52.53 51.82 51.01 49.78 47.11 46.71 50.81 50.86 39.28 44.40 47.39 46.74 47.27 48.64 45.08 46.81 51.72 49.44 44.93 43.47 43.00 40.75 41.89 45.13 44.43 44.46 42.98 43.26 41.49 41.21 40.90 43.62 43.72 42.75 42.25 43.47 46.56 47.58 48.88 49.58 51.07 52.14 52.68
53.18 53.01 52.23 51.40 46.04 47.87 44.36 49.71 50.49 50.52 35.45 37.63 41.98 45.58 47.49 47.93 42.99 50.57 51.25 48.51 45.25 41.27 42.72 41.44 44.08 42.81 42.14 41.62 44.17 40.18 44.96 43.87 42.30 41.08 37.23 42.15 36.01 42.21 43.74 44.34 44.88 47.04 48.91 49.41 49.63
53.03 52.62 52.23 49.87 44.91 42.86 45.05 50.17 49.76 48.10 24.58 37.32 40.57 49.81 47.26 44.21 45.58 46.46 51.47 47.89 41.30 42.18 43.20 38.43 40.96 41.47 39.94 40.64 44.23 40.38 45.02 43.48 42.27 40.29 39.14 39.45 36.11 40.38 40.57 40.47 43.09 45.47 45.14 46.85 48.20
51.83 52.02 50.02 46.90 46.50 45.65 50.02 50.11 47.31 32.39 23.22 34.81 41.37 41.33 41.10 42.69 43.89 46.40 46.35 48.43 47.26 42.44 41.39 39.41 42.47 43.58 42.50 43.87 44.74 45.01 42.73 41.39 41.17 39.37 30.72 35.96 35.29 35.93 38.29 40.45 42.14 43.76 45.58 46.93 47.32
52.10 51.01 47.58 46.36 42.24 48.97 48.73 45.71 30.79 25.83 32.84 33.46 35.22 40.33 39.76 39.18 41.40 42.15 40.78 40.08 38.67 34.82 34.69 38.30 38.64 41.47 43.18 40.87 42.97 42.55 38.50 30.88 29.61 29.56 27.88 34.53 33.44 36.54 40.63 42.06 43.40 43.63 46.08 46.84 47.16
50.69 48.65 46.80 46.14 49.26 47.57 46.05 35.91 24.63 24.64 30.26 36.78 37.76 39.08 36.35 39.26 39.47 40.45 39.12 36.95 40.27 38.21 35.82 32.93 30.77 38.67 41.57 41.22 39.19 39.11 37.45 31.78 24.46 26.79 30.90 33.27 30.42 36.99 43.51 45.11 44.97 44.54 45.38 45.26 46.45
48.85 46.26 45.08 45.45 46.54 45.33 39.82 28.02 26.58 27.25 33.56 34.03 36.28 34.74 34.57 36.85 38.17 38.54 38.09 37.52 39.89 39.47 34.52 32.97 31.86 40.15 40.51 41.33 42.91 38.16 34.87 38.65 31.12 27.36 30.06 34.41 36.50 40.35 43.35 43.09 43.24 43.39 43.04 45.34 46.05
44.29 42.45 42.68 46.27 46.38 42.11 34.01 27.04 29.02 33.94 34.97 36.73 31.68 33.64 31.62 34.92 35.09 36.74 35.82 38.43 38.73 41.54 42.26 36.72 31.19 37.03 39.56 41.92 41.79 40.41 42.01 32.83 34.67 25.34 24.43 30.89 30.83 34.62 37.80 40.13 41.57 42.83 44.19 44.79 45.32
40.76 34.77 43.60 46.13 44.50 36.21 27.55 24.82 29.47 34.06 36.93 34.30 32.41 33.56 33.65 34.51 35.28 34.82 35.19 37.09 40.19 40.68 42.53 38.77 35.68 34.09 38.93 37.08 36.36 37.15 36.21 37.06 36.75 32.83 26.49 25.13 30.23 39.56 40.79 41.51 42.12 43.88 44.62 45.73 46.18
39.17 31.88 43.68 43.63 33.05 28.69 27.64 25.50 32.02 33.40 36.36 36.02 36.19 35.25 33.66 34.90 34.30 33.35 34.54 36.66 39.69 41.28 37.24 39.98 36.81 31.90 33.57 37.79 39.79 40.34 37.84 38.02 32.66 29.58 32.43 30.45 31.29 39.78 40.34 41.02 41.24 42.67 43.04 45.09 46.48
32.57 34.85 44.57 39.83 28.16 27.43 25.57 27.98 29.65 31.71 32.74 33.92 33.57 34.41 34.65 32.73 31.19 33.83 34.87 37.19 39.66 39.50 38.43 39.83 35.22 29.49 30.12 35.01 37.39 36.00 37.81 38.92 37.58 35.41 32.70 28.89 32.42 39.40 39.84 40.40 40.51 41.80 43.18 43.77 44.81
36.61 31.05 34.92 32.70 28.38 29.16 26.04 25.73 27.30 31.89 32.73 35.07 33.86 34.13 32.64 30.67 32.03 31.69 32.50 36.26 38.39 38.65 39.97 40.79 36.10 32.01 27.73 30.04 34.63 33.04 35.69 37.98 37.39 32.63 32.77 32.63 34.89 38.18 39.83 40.51 42.32 42.81 43.78 45.12 46.05
35.20 31.01 29.29 28.71 29.85 28.88 28.85 27.07 26.04 27.56 31.90 33.51 33.03 32.55 31.39 28.62 28.51 29.61 32.85 33.66 36.40 38.41 37.90 37.38 31.88 33.72 33.61 34.14 34.65 33.97 33.84 35.45 35.06 36.03 31.99 34.37 34.02 38.72 41.64 42.80 44.13 45.21 45.05 43.70 44.12
33.08 30.91 28.59 25.02 27.66 29.45 27.55 26.30 27.76 27.17 30.11 28.86 29.41 32.41 32.32 28.44 28.84 27.91 31.63 32.55 32.45 36.09 36.63 36.94 30.93 33.74 31.29 34.99 34.86 31.23 34.35 35.28 34.89 35.96 36.31 36.88 36.36 43.01 44.48 45.26 42.61 43.33 44.04 43.92 44.23
35.82 34.55 35.36 28.61 27.52 29.12 28.77 27.83 28.35 30.63 30.34 32.05 31.59 30.68 30.41 31.28 33.29 33.93 34.08 34.01 34.47 33.88 33.60 34.05 31.76 28.62 26.42 31.24 30.21 26.13 30.58 32.90 35.51 37.67 37.37 33.73 39.34 43.41 42.45 42.93 43.18 43.59 44.04 43.60 43.92
MSLP
1018.24 1018.32 1018.24 1018.10 1018.19 1018.10 1017.74 1017.45 1017.35 1017.36 1017.48 1017.68 1017.06 1017.44 1017.54 1017.61 1017.60 1018.06 1017.90 1017.10 1017.66 1016.99 1015.99 1014.74 1014.07 1013.19 1012.85 1013.16 1013.19 1012.73 1011.67 1011.26 1011.55 1011.63 1012.21 1013.10 1013.21 1013.92 1014.28 1014.15 1014.65 1015.10 1015.23 1015.84 1016.32
1018.02 1018.06 1018.18 1018.11 1017.96 1017.90 1017.63 1017.47 1017.22 1017.17 1017.39 1017.51 1017.23 1017.05 1017.61 1017.84 1017.90 1017.96 1017.29 1016.97 1017.14 1016.78 1015.86 1015.24 1014.47 1013.71 1013.33 1013.38 1013.38 1012.72 1011.93 1011.68 1011.92 1011.98 1012.08 1013.00 1013.03 1013.66 1014.03 1014.17 1014.30 1014.87 1015.75 1016.18 1016.87
1017.77 1017.90 1017.95 1017.91 1017.75 1017.68 1017.64 1017.40 1017.13 1017.06 1017.21 1017.13 1017.19 1017.19 1017.69 1017.63 1018.36 1017.27 1016.86 1017.03 1016.92 1016.85 1016.39 1015.74 1015.25 1014.26 1014.02 1013.91 1013.78 1013.16 1012.79 1012.87 1012.77 1012.74 1012.65 1012.95 1013.31 1013.63 1013.73 1013.85 1013.63 1013.94 1015.17 1016.12 1016.74
1017.45 1017.62 1017.73 1017.74 1017.58 1017.46 1017.14 1017.30 1017.01 1016.80 1016.91 1017.06 1017.34 1017.35 1017.73 1017.78 1018.28 1016.66 1016.69 1016.97 1017.06 1016.63 1015.83 1015.54 1015.38 1014.82 1014.86 1014.56 1014.27 1013.57 1013.91 1013.77 1013.55 1013.41 1013.26 1013.29 1013.44 1013.55 1013.59 1013.73 1014.19 1014.12 1014.89 1015.79 1016.31
1017.15 1017.27 1017.41 1017.57 1017.49 1017.39 1017.21 1017.05 1016.86 1016.58 1016.69 1016.97 1017.21 1017.17 1017.48 1017.74 1017.01 1016.62 1016.71 1016.93 1016.54 1016.15 1015.57 1015.48 1015.16 1015.62 1015.56 1015.41 1014.68 1014.37 1014.56 1014.39 1014.29 1013.92 1013.62 1013.93 1013.80 1013.48 1013.73 1014.10 1014.49 1014.68 1015.24 1015.62 1015.99
1016.89 1017.00 1017.19 1017.38 1017.35 1017.30 1017.13 1016.81 1016.79 1016.42 1016.46 1016.74 1016.98 1017.08 1017.42 1017.17 1016.42 1016.43 1016.47 1016.54 1016.31 1016.00 1016.16 1016.20 1015.20 1015.70 1015.91 1015.90 1015.68 1015.48 1015.16 1014.88 1014.63 1014.41 1014.15 1014.13 1014.44 1014.29 1013.80 1014.25 1014.42 1014.74 1014.94 1015.38 1015.73
1016.61 1016.82 1017.00 1017.25 1017.19 1017.12 1017.01 1016.77 1016.56 1016.34 1016.26 1016.55 1016.79 1017.00 1016.97 1016.31 1016.42 1016.28 1016.12 1016.06 1016.22 1015.95 1016.11 1015.91 1015.47 1015.30 1016.36 1016.78 1016.52 1015.85 1015.33 1014.96 1014.95 1014.84 1014.64 1014.43 1014.62 1014.17 1014.20 1014.36 1014.31 1014.50 1014.74 1015.20 1015.63
1016.27 1016.55 1016.73 1016.85 1016.91 1016.80 1016.62 1016.63 1016.39 1016.33 1016.23 1016.40 1016.85 1017.01 1016.62 1016.39 1016.43 1016.40 1015.93 1016.08 1016.31 1016.18 1016.10 1016.34 1015.93 1016.04 1016.42 1017.37 1016.87 1016.27 1015.78 1015.25 1015.43 1015.14 1015.27 1015.03 1014.19 1014.03 1014.63 1014.64 1014.19 1014.43 1014.60 1014.87 1015.25
1015.92 1016.17 1016.38 1016.52 1016.73 1016.67 1016.62 1016.55 1016.55 1016.47 1016.17 1016.28 1017.03 1016.84 1016.53 1016.45 1016.46 1016.16 1015.97 1015.95 1016.03 1016.52 1016.32 1016.27 1016.64 1016.55 1016.97 1016.97 1017.11 1016.54 1015.68 1015.75 1015.73 1015.77 1015.86 1015.60 1014.76 1015.07 1015.11 1015.02 1014.52 1014.54 1014.65 1014.95 1015.12
1015.50 1015.86 1016.13 1016.33 1016.50 1016.57 1016.57 1016.34 1016.48 1016.26 1016.32 1016.46 1016.74 1017.20 1016.40 1016.04 1016.09 1016.15 1016.34 1016.21 1016.19 1016.63 1016.95 1016.80 1017.06 1016.85 1016.94 1016.54 1016.26 1016.46 1016.32 1016.56 1016.18 1016.63 1016.67 1016.26 1015.36 1015.40 1015.74 1015.54 1015.08 1014.91 1015.00 1015.10 1014.98
1015.03 1015.50 1015.84 1016.10 1016.32 1016.36 1016.43 1016.57 1016.94 1016.47 1015.86 1015.27 1015.63 1015.67 1015.46 1015.90 1016.17 1016.31 1016.34 1016.27 1016.42 1016.70 1016.71 1017.00 1016.74 1016.26 1016.43 1016.35 1016.40 1016.88 1016.94 1016.71 1016.69 1017.26 1017.20 1016.52 1016.11 1015.65 1016.06 1016.17 1015.75 1015.24 1015.16 1015.00 1014.76
1014.61 1015.15 1015.61 1015.93 1016.18 1016.36 1016.37 1016.67 1016.37 1016.54 1015.69 1015.92 1016.01 1016.05 1015.80 1015.57 1016.01 1016.42 1016.31 1016.06 1016.40 1016.57 1016.98 1017.38 1016.73 1017.36 1017.47 1017.18 1017.00 1017.31 1017.52 1017.72 1017.88 1017.84 1017.91 1017.16 1016.53 1015.94 1016.08 1015.94 1015.77 1015.49 1015.15 1014.92 1014.68
1014.11 1014.84 1015.40 1015.91 1016.24 1016.47 1016.58 1016.87 1016.80 1016.54 1017.07 1016.51 1016.23 1015.80 1015.88 1015.87 1015.97 1016.15 1016.14 1015.98 1016.34 1016.82 1016.88 1016.99 1017.72 1017.99 1018.12 1017.99 1017.82 1017.87 1017.73 1018.08 1018.28 1018.37 1018.42 1017.76 1016.10 1015.82 1015.56 1015.70 1015.51 1015.46 1015.03 1014.71 1014.60
1013.77 1014.66 1015.42 1015.98 1016.70 1016.59 1016.36 1016.48 1016.83 1016.93 1016.83 1016.27 1016.35 1016.06 1015.86 1015.69 1016.47 1016.51 1016.15 1016.04 1016.74 1017.09 1017.53 1017.84 1018.39 1018.59 1018.37 1018.18 1018.13 1018.20 1018.65 1018.73 1018.85 1018.93 1018.30 1018.18 1015.76 1015.30 1015.47 1015.37 1015.37 1014.74 1014.54 1014.87 1015.16
1013.74 1014.61 1015.30 1015.71 1016.25 1016.55 1016.21 1016.27 1017.06 1016.35 1016.25 1016.39 1016.34 1016.32 1016.05 1015.92 1016.08 1016.72 1016.50 1016.50 1016.78 1017.09 1017.63 1018.52 1018.82 1018.65 1018.78 1018.50 1018.52 1018.69 1019.22 1019.11 1019.25 1019.07 1018.98 1018.20 1017.74 1015.07 1015.63 1015.21 1014.66 1014.36 1015.01 1015.34 1015.70
1013.58 1014.73 1015.54 1016.28 1016.60 1016.40 1016.16 1016.44 1017.38 1016.72 1016.49 1016.08 1015.94 1015.82 1015.81 1015.86 1016.12 1016.63 1016.62 1016.70 1017.30 1017.72 1018.33 1018.84 1019.06 1018.92 1018.89 1019.02 1018.90 1019.36 1019.67 1019.93 1019.99 1019.72 1018.96 1018.11 1017.63 1014.79 1014.98 1014.66 1014.70 1015.16 1015.30 1015.41 1015.82
1013.94 1014.97 1015.76 1016.16 1016.40 1016.54 1016.58 1016.30 1016.64 1016.81 1017.00 1016.51 1015.92 1015.48 1015.46 1015.70 1016.14 1016.25 1016.53 1016.82 1016.92 1017.89 1018.53 1019.19 1019.40 1019.43 1019.36 1019.53 1019.88 1019.39 1019.52 1020.20 1020.52 1020.09 1018.35 1018.46 1017.84 1015.09 1014.86 1014.61 1015.03 1015.59 1015.40 1015.26 1015.87
1014.66 1015.33 1016.54 1016.84 1016.61 1016.82 1016.55 1016.76 1017.81 1018.19 1017.43 1016.46 1015.71 1015.66 1015.86 1016.04 1016.31 1016.42 1016.74 1016.96 1017.38 1017.29 1018.00 1018.70 1020.02 1019.64 1019.63 1019.17 1018.95 1019.39 1018.98 1018.80 1018.90 1018.83 1018.35 1019.04 1016.68 1014.85 1014.61 1014.63 1015.39 1015.88 1015.76 1015.64 1016.01
1015.16 1016.48 1017.28 1017.75 1017.40 1017.17 1017.06 1017.85 1018.67 1018.62 1018.05 1017.06 1016.58 1016.52 1016.43 1016.51 1016.55 1016.60 1017.08 1017.13 1017.35 1017.38 1017.56 1018.38 1018.96 1019.34 1019.36 1019.15 1019.08 1019.54 1019.48 1019.38 1019.32 1019.72 1019.08 1017.34 1016.24 1015.41 1014.80 1014.81 1015.30 1015.34 1015.58 1015.82 1016.05
1015.92 1017.33 1018.10 1018.08 1017.71 1017.53 1017.75 1018.54 1019.33 1019.35 1018.63 1017.68 1016.90 1017.09 1016.72 1016.90 1016.85 1016.92 1017.70 1017.93 1017.79 1017.60 1017.46 1018.31 1019.14 1019.64 1019.56 1019.43 1019.29 1019.05 1019.01 1019.18 1019.56 1019.42 1018.69 1016.80 1015.95 1014.62 1014.86 1014.56 1014.97 1015.26 1015.64 1015.93 1016.04
1016.86 1018.21 1018.52 1018.24 1017.97 1018.31 1019.22 1020.00 1019.86 1019.19 1018.38 1017.40 1017.11 1017.27 1017.34 1017.32 1017.28 1017.68 1017.87 1018.62 1018.27 1018.16 1018.25 1018.42 1018.78 1020.17 1019.92 1019.54 1018.94 1019.37 1019.08 1019.10 1019.36 1019.34 1018.40 1017.26 1015.10 1014.48 1014.32 1014.55 1014.81 1015.27 1015.42 1015.39 1015.86
1018.00 1018.71 1018.95 1018.51 1018.98 1020.02 1020.49 1020.64 1020.24 1019.96 1019.06 1018.35 1017.98 1018.01 1018.28 1018.19 1018.39 1018.55 1018.76 1018.92 1019.05 1018.64 1018.70 1019.02 1019.24 1019.71 1019.91 1019.89 1019.63 1018.97 1018.95 1018.93 1018.91 1019.15 1018.65 1017.65 1015.00 1014.77 1014.89 1014.47 1014.93 1015.40 1016.11 1015.82 1015.49
1018.57 1019.31 1019.05 1018.88 1019.78 1020.69 1021.21 1020.88 1020.78 1019.96 1019.39 1018.72 1018.72 1018.90 1018.94 1019.16 1019.34 1019.36 1019.53 1020.00 1019.48 1019.34 1019.34 1019.28 1019.50 1019.98 1020.48 1020.48 1019.99 1019.56 1019.12 1018.63 1018.73 1018.78 1017.74 1017.64 1015.41 1015.47 1015.34 1015.14 1015.58 1015.49 1015.63 1015.72 1015.65
1018.52 1019.84 1020.21 1020.34 1020.89 1020.54 1020.98 1021.00 1020.63 1019.95 1019.69 1019.33 1019.41 1019.26 1019.35 1019.71 1019.76 1019.81 1020.13 1020.57 1020.35 1020.35 1020.30 1020.02 1020.13 1020.02 1019.94 1019.87 1019.71 1019.48 1018.99 1018.82 1018.81 1018.31 1017.81 1016.04 1015.65 1015.28 1015.17 1015.49 1015.73 1015.82 1015.72 1015.73 1015.64
1018.78 1020.31 1020.97 1021.21 1021.15 1020.82 1020.67 1020.86 1020.55 1020.24 1019.92 1019.56 1019.40 1019.47 1019.63 1020.14 1020.24 1020.21 1020.43 1020.90 1021.16 1021.08 1021.06 1021.10 1021.10 1021.18 1021.10 1020.90 1020.54 1019.89 1019.33 1018.90 1018.34 1017.65 1017.40 1015.88 1015.00 1015.08 1015.04 1015.12 1015.07 1015.21 1015.11 1015.27 1015.23
1019.18 1020.21 1021.19 1021.42 1021.14 1020.95 1020.98 1020.87 1020.41 1020.38 1020.01 1019.90 1019.73 1019.69 1019.69 1019.90 1020.25 1020.49 1020.48 1020.76 1020.90 1021.52 1021.35 1021.65 1021.74 1021.72 1021.48 1021.08 1020.86 1020.05 1019.19 1018.83 1018.48 1017.80 1016.90 1016.19 1013.77 1014.44 1014.16 1014.53 1014.88 1014.87 1014.75 1014.84 1015.10
1019.45 1019.89 1019.88 1021.37 1021.34 1021.08 1020.64 1020.55 1020.39 1020.25 1020.51 1020.19 1020.05 1020.03 1020.20 1020.44 1020.61 1020.86 1020.92 1021.14 1021.25 1021.37 1021.58 1021.74 1021.84 1022.09 1021.74 1021.35 1020.81 1019.66 1018.31 1017.56 1016.89 1016.48 1015.91 1015.06 1013.36 1013.41 1013.57 1014.08 1014.44 1014.52 1014.81 1015.05 1015.27
Wind_Speed
10 11 12 9 9 11 10 11 8 8 8 5 6 7 3 4 5 2 5 5 5 13 12 11 6 10 5 2 3 2 5 8 9 13 9 12 10 4 1 8 3 3 0 2 16
11 10 9 12 11 10 11 12 10 7 9 9 5 9 6 3 3 6 4 3 11 13 6 7 8 7 4 4 1 3 5 8 5 7 12 16 11 12 7 8 5 6 5 11 16
9 12 10 11 11 10 9 12 11 9 11 9 8 10 8 7 2 4 2 5 12 9 5 2 2 3 4 3 5 3 1 3 4 3 9 15 9 8 6 7 6 10 12 15 16
11 11 8 9 8 8 8 11 11 10 9 11 11 11 7 6 4 2 3 4 8 7 3 1 4 4 3 5 5 2 3 3 2 4 8 12 11 8 9 3 3 4 13 17 17
12 11 7 7 7 8 7 9 11 9 8 10 13 14 5 4 5 2 2 5 4 3 2 2 4 3 3 5 7 3 3 3 3 4 7 9 7 7 9 3 1 7 12 15 14
10 9 6 7 8 8 6 8 10 5 7 10 11 12 4 8 3 1 5 2 4 4 2 7 2 6 5 6 6 3 2 2 2 4 5 8 3 3 7 6 5 9 13 14 13
11 9 7 8 8 8 4 5 8 5 3 9 10 3 6 10 3 2 5 3 2 4 4 2 8 4 8 2 5 2 1 1 2 2 3 4 3 9 3 7 7 8 9 10 12
11 9 8 8 8 6 4 6 7 5 6 11 10 3 5 2 3 3 4 4 3 4 3 2 3 7 4 3 3 2 1 4 2 1 3 4 14 8 4 6 8 7 9 10 12
11 9 10 8 7 4 4 4 7 6 7 12 8 6 5 5 6 4 2 6 5 3 4 4 4 4 4 8 2 1 6 4 1 3 2 4 6 3 1 4 6 6 6 6 8
13 12 11 9 7 4 5 3 7 4 2 5 2 3 7 6 4 6 2 7 4 6 5 3 3 5 5 8 10 7 8 4 6 5 1 1 11 3 5 3 7 7 7 7 9
14 13 12 9 7 3 2 2 4 5 6 2 9 2 6 6 4 6 6 7 6 3 6 4 6 13 14 13 5 3 2 5 1 3 3 5 11 13 4 6 9 10 9 9 11
16 15 13 10 7 4 3 2 2 3 4 1 7 3 3 2 6 5 7 7 8 9 8 5 9 2 3 6 9 8 7 5 2 2 3 3 9 13 10 9 10 11 13 14 15
18 15 13 10 7 4 5 4 3 2 3 5 4 3 5 5 5 10 8 7 8 12 14 10 1 8 6 7 11 11 13 9 7 1 2 8 15 10 3 6 9 13 16 17 17
17 15 14 13 4 3 5 5 3 3 4 5 7 3 2 6 5 1 1 3 4 10 11 5 5 10 10 12 12 15 7 9 6 4 7 3 7 5 5 7 8 13 11 9 10
18 16 18 9 7 4 2 9 3 5 5 3 4 1 3 4 17 4 1 3 9 7 6 6 9 12 10 7 10 4 7 6 4 6 5 9 7 3 2 6 13 8 1 2 4
18 19 18 5 2 3 4 11 3 4 4 5 6 6 7 3 3 7 5 5 4 7 6 4 2 1 4 3 9 13 10 7 4 2 7 9 9 7 6 10 4 4 3 5 5
20 20 6 2 2 4 3 5 2 2 3 4 4 8 6 6 7 10 12 10 7 9 8 3 2 1 2 9 3 6 13 4 4 5 7 4 7 7 6 10 8 5 7 4 6
23 14 7 3 3 3 2 5 3 2 1 3 3 10 3 7 3 6 14 9 1 4 10 10 6 9 6 5 9 11 9 4 8 6 5 4 8 2 12 9 4 7 6 6 5
21 4 3 6 6 3 2 6 2 2 3 3 9 5 4 3 4 5 8 10 7 5 5 7 2 3 2 1 6 7 8 1 1 2 2 6 6 9 10 12 6 5 3 2 1
5 4 3 7 6 3 2 5 1 2 4 5 4 2 4 8 6 8 8 2 4 7 2 4 6 0 2 0 0 3 9 4 1 4 6 5 6 8 6 10 4 7 4 4 2
6 4 5 8 2 5 3 2 2 5 7 7 4 4 3 5 4 8 6 4 4 8 5 1 3 3 6 8 12 5 5 3 4 3 3 5 4 6 13 9 11 8 4 3 4
4 4 4 3 3 2 2 1 3 1 3 3 4 6 4 3 4 4 4 5 5 3 9 5 4 5 2 2 2 7 8 9 4 4 4 3 7 0 5 8 6 4 5 7 6
4 3 2 2 2 3 2 2 1 2 4 4 4 6 4 3 4 2 5 2 7 4 5 4 4 5 2 2 1 5 8 11 3 2 8 5 2 4 4 3 4 5 2 5 7
4 4 3 4 1 5 4 1 2 4 3 3 4 2 3 3 5 4 4 2 4 4 6 2 2 2 6 3 1 8 10 14 13 8 6 18 14 8 5 3 7 7 8 11 11
4 3 1 3 1 3 2 2 3 2 3 5 3 1 4 5 2 4 4 3 2 3 4 3 2 3 3 4 3 4 3 11 19 18 13 12 20 16 16 15 15 13 10 9 11
4 5 2 2 2 5 2 4 5 2 2 1 3 2 4 3 3 5 6 4 3 3 5 4 3 4 5 7 10 7 11 12 11 15 21 22 31 20 19 13 10 11 12 13 11
1 2 2 1 3 3 4 6 7 5 2 3 3 4 4 4 2 4 5 4 3 4 5 7 5 3 3 4 5 7 16 17 14 14 15 18 24 19 18 13 12 12 10 10 8
Wind_Direction
284 284 287 303 317 325 337 315 284 221 223 255 117 125 107 78 57 22 225 152 292 307 308 317 354 3 43 61 15 286 199 186 167 175 146 156 170 160 87 146 165 149 300 51 142
282 277 284 288 302 319 332 318 289 227 221 206 148 113 123 125 72 234 252 270 298 305 304 359 13 11 44 5 55 295 231 177 153 154 161 166 172 159 182 167 170 156 112 136 151
271 276 269 275 285 307 316 322 290 228 212 195 170 143 145 85 25 239 188 281 284 268 252 135 307 53 45 342 8 30 349 151 140 146 171 158 161 154 174 190 190 176 153 158 167
277 267 262 267 263 296 332 321 287 225 209 194 181 155 158 107 198 223 337 189 250 259 280 146 30 64 33 8 356 145 45 327 117 142 153 169 141 170 194 80 6 154 159 164 180
273 248 247 264 270 279 310 326 289 227 211 197 179 152 125 130 244 151 145 180 174 285 352 341 43 89 83 357 341 27 30 27 35 128 131 140 166 176 196 141 74 150 163 181 188
259 236 222 250 264 255 297 333 305 227 205 203 186 164 159 191 131 214 177 184 158 149 163 213 169 116 50 2 337 358 29 45 35 110 113 160 146 205 192 171 147 169 182 188 197
241 228 220 235 248 249 288 323 319 253 202 197 185 150 198 200 164 232 176 159 259 134 140 280 127 102 119 297 339 339 203 57 69 48 95 144 173 218 134 185 181 186 187 197 204
231 224 210 220 244 260 273 318 336 256 281 185 171 172 214 168 195 185 163 131 118 87 127 192 143 93 132 125 16 225 241 203 106 354 50 234 209 198 152 196 196 193 205 208 213
222 212 201 213 233 241 257 312 307 254 252 165 155 193 215 132 196 178 188 144 109 71 81 91 1 99 155 156 333 302 210 185 255 59 342 235 227 74 149 234 220 216 229 237 249
211 200 193 203 212 215 251 324 293 176 175 132 50 106 176 189 158 156 166 150 117 125 104 125 170 178 171 186 187 193 211 203 221 51 207 209 258 174 45 275 266 272 267 265 264
207 198 192 197 203 230 248 58 201 219 199 194 160 176 130 117 119 165 163 123 127 150 168 163 192 205 199 192 182 144 201 239 329 67 290 242 262 271 294 278 268 264 271 267 261
198 193 187 182 192 161 126 232 327 346 115 193 152 114 139 166 120 162 180 142 167 176 147 147 215 122 218 179 167 183 207 226 248 58 279 279 269 277 266 257 256 268 266 263 268
190 185 177 166 144 152 190 192 328 201 71 160 167 139 153 173 132 163 183 132 156 165 189 195 123 163 162 178 189 209 214 208 251 279 173 294 266 239 251 247 252 255 253 260 266
180 173 160 137 134 173 218 126 329 275 176 165 169 214 162 170 80 275 112 117 128 165 158 190 134 170 169 202 200 215 206 205 195 244 254 347 281 227 255 268 256 251 245 276 293
172 162 150 152 132 193 211 114 305 254 167 162 150 82 271 173 130 168 281 89 141 131 169 144 172 146 175 208 186 225 172 189 210 239 284 221 261 219 309 266 246 257 50 77 324
160 149 129 92 97 283 136 112 198 169 150 193 134 178 139 155 95 129 151 68 102 91 73 86 33 164 132 121 171 133 117 80 75 157 246 228 239 243 205 241 273 119 12 338 331
139 130 97 118 145 165 185 108 61 327 340 148 164 158 143 131 120 151 160 161 147 137 159 121 75 95 133 106 109 182 166 144 195 210 252 144 222 283 262 247 254 305 316 339 340
119 98 40 11 124 132 250 84 247 246 245 308 167 146 148 133 65 138 151 163 158 85 143 166 178 182 174 191 177 179 195 188 213 205 221 173 234 219 232 263 260 279 275 300 291
104 46 43 3 353 349 195 133 358 150 301 209 136 176 147 81 133 143 162 176 175 184 129 158 183 176 163 126 165 169 206 112 109 127 263 225 233 273 257 262 253 238 223 124 174
86 65 44 330 338 33 59 97 64 272 283 212 124 16 139 150 149 152 141 170 149 196 38 150 122 37 122 96 199 210 150 157 222 207 242 232 261 247 195 220 164 159 129 174 199
61 75 353 342 341 45 61 93 312 327 328 19 69 91 97 118 140 156 147 77 149 194 173 104 37 93 157 206 191 162 181 185 177 208 237 269 240 219 225 155 159 145 183 182 199
88 84 324 322 58 38 95 172 356 334 311 79 66 65 55 81 96 110 130 67 343 148 180 170 167 160 157 80 353 232 217 185 189 193 243 334 256 354 220 173 148 178 214 230 240
85 55 340 306 122 86 349 10 281 17 32 36 60 43 75 63 114 79 97 11 40 65 138 148 183 143 140 277 181 218 207 219 192 7 217 222 239 356 220 191 206 262 332 288 281
115 114 340 55 339 127 143 105 89 357 55 38 114 97 105 66 36 117 104 93 39 90 55 40 130 291 216 94 330 204 211 217 209 229 208 235 254 218 200 226 265 258 253 249 272
26 74 11 155 175 99 75 123 113 101 16 18 41 78 100 124 72 101 99 92 42 88 60 86 97 70 351 303 296 263 246 241 228 236 236 263 254 252 253 258 263 267 270 266 270
131 145 83 91 166 127 352 206 175 172 164 168 139 122 66 91 28 154 136 165 113 161 160 160 163 191 202 184 217 232 246 222 247 250 254 259 266 271 272 275 246 258 268 273 275
112 81 102 130 148 154 202 178 198 161 95 54 139 109 139 121 71 64 62 84 83 149 155 168 147 161 223 183 261 254 224 222 223 209 221 241 255 268 275 263 265 262 265 268 284